Date String (YYYY-MM-DD hh:mm:ss) UTC,Instrument flags,Ambient pressure (hPa),Sample flow (lpm),Bypass flow (lpm),Sample temperature (°C),Ambient temperature (°C),ASC tube jacket temperature (°C),LED temperature (°C),Box temperature (°C),Sample RH (%),Span deviation,Mass concentration (μg/m³),Mass concentration (μg/m³),Mass concentration (μg/m³)
DateTimeUTC,F1_M11,P_M11,Q1_M11,Q2_M11,T1_M11,T2_M11,T3_M11,T4_M11,T5_M11,U1_M11,ZSPAN_M11,X2_M11,X0_M11,X1_M11
2022-10-05 17:00:00,,0834.2,5.01,0.00,26.8,25.0,00.0,35.7,28.6,24.3,0000.0,0004.95,0009.57,0004.68
2022-10-05 17:01:00,,0834.2,4.99,0.00,26.8,25.0,00.0,35.7,28.6,24.4,0000.0,0004.93,0009.55,0004.67
2022-10-05 17:02:00,,0834.1,4.99,0.00,26.8,25.1,00.0,35.7,28.6,24.4,0000.0,0004.90,0009.41,0004.63
2022-10-05 17:03:00,,0834.1,5.00,0.00,26.8,25.1,00.0,35.7,28.6,24.0,0000.0,0004.86,0008.99,0004.58
2022-10-05 17:04:00,,0834.1,5.01,0.00,26.8,25.1,00.0,35.7,28.6,24.4,0000.0,0004.80,0009.03,0004.53
2022-10-05 17:05:00,,0834.1,5.00,0.00,26.8,25.2,00.0,35.7,28.6,23.8,0000.0,0004.73,0008.81,0004.48
2022-10-05 17:06:00,,0834.1,4.99,0.00,26.8,25.2,00.0,35.7,28.7,23.8,0000.0,0004.70,0008.74,0004.46
2022-10-05 17:07:00,,0834.1,5.00,0.00,26.8,25.3,00.0,35.7,28.7,23.9,0000.0,0004.66,0008.66,0004.43
2022-10-05 17:08:00,,0834.1,5.01,0.00,26.9,25.4,00.0,35.7,28.7,23.7,0000.0,0004.66,0008.62,0004.41
2022-10-05 17:09:00,,0834.0,5.00,0.00,26.8,25.2,00.0,35.7,28.6,23.7,0000.0,0004.66,0008.56,0004.40
2022-10-05 17:10:00,,0834.1,4.99,0.00,26.8,25.1,00.0,35.7,28.6,24.1,0000.0,0004.66,0008.44,0004.40
2022-10-05 17:11:00,,0834.1,4.99,0.00,26.8,25.2,00.0,35.7,28.6,24.4,0000.0,0004.67,0008.48,0004.41
2022-10-05 17:12:00,,0834.1,5.01,0.00,26.8,25.1,00.0,35.7,28.5,24.4,0000.0,0004.71,0008.54,0004.44
2022-10-05 17:13:00,,0834.1,4.99,0.00,26.8,25.1,00.0,35.7,28.6,24.6,0000.0,0004.73,0008.54,0004.47
2022-10-05 17:14:00,,0834.1,5.00,0.00,26.8,25.2,00.0,35.7,28.6,25.0,0000.0,0004.74,0008.56,0004.49
2022-10-05 17:15:00,,0834.1,5.01,0.00,26.8,25.1,00.0,35.7,28.5,24.6,0000.0,0004.79,0008.66,0004.53
2022-10-05 17:16:00,,0834.1,4.99,0.00,26.7,24.9,00.0,35.6,28.5,24.5,0000.0,0004.82,0008.69,0004.57
2022-10-05 17:17:00,,0834.1,5.00,0.00,26.7,24.7,00.0,35.6,28.4,24.8,0000.0,0004.84,0008.70,0004.59
2022-10-05 17:18:00,,0834.1,4.99,0.00,26.6,24.6,00.0,35.6,28.3,25.0,0000.0,0004.90,0008.90,0004.62
2022-10-05 17:19:00,,0834.1,5.00,0.00,26.6,24.6,00.0,35.6,28.3,25.0,0000.0,0004.91,0009.02,0004.65
2022-10-05 17:20:00,,0834.1,5.00,0.00,26.6,24.4,00.0,35.6,28.2,25.2,0000.0,0004.94,0009.11,0004.68
2022-10-05 17:21:00,,0834.1,4.99,0.00,26.5,24.5,00.0,35.5,28.2,26.2,0000.0,0004.96,0008.67,0004.70
2022-10-05 17:22:00,,0834.1,5.01,0.00,26.5,24.6,00.0,35.5,28.3,25.3,0000.0,0004.96,0008.49,0004.71
2022-10-05 17:23:00,,0834.0,4.99,0.00,26.5,24.8,00.0,35.5,28.3,24.8,0000.0,0004.95,0008.59,0004.70
2022-10-05 17:24:00,,0834.1,5.00,0.00,26.6,24.9,00.0,35.5,28.4,25.2,0000.0,0004.96,0008.64,0004.71
2022-10-05 17:25:00,,0834.1,5.01,0.00,26.5,24.8,00.0,35.5,28.3,24.8,0000.0,0004.99,0008.33,0004.73
2022-10-05 17:26:00,,0834.1,5.00,0.00,26.5,24.6,00.0,35.5,28.2,25.0,0000.0,0005.02,0008.11,0004.74
2022-10-05 17:27:00,,0834.1,4.99,0.00,26.5,24.6,00.0,35.5,28.2,25.1,0000.0,0005.01,0008.14,0004.73
2022-10-05 17:28:00,,0834.1,5.02,0.00,26.5,24.7,00.0,35.4,28.2,25.1,0000.0,0005.01,0008.17,0004.73
2022-10-05 17:29:00,,0834.1,4.99,0.00,26.5,24.8,00.0,35.4,28.3,25.1,0000.0,0005.00,0008.03,0004.73
2022-10-05 17:30:00,,0834.0,5.00,0.00,26.5,24.7,00.0,35.4,28.2,24.8,0000.0,0005.00,0007.93,0004.74
2022-10-05 17:31:00,,0834.1,5.00,0.00,26.5,24.7,00.0,35.4,28.2,25.3,0000.0,0004.97,0007.82,0004.72
2022-10-05 17:32:00,,0834.1,4.99,0.00,26.5,24.6,00.0,35.4,28.2,24.8,0000.0,0004.98,0007.83,0004.73
2022-10-05 17:33:00,,0834.1,5.01,0.00,26.4,24.5,00.0,35.4,28.1,25.2,0000.0,0005.03,0007.97,0004.75
2022-10-05 17:34:00,,0834.1,4.99,0.00,26.4,24.4,00.0,35.4,28.1,24.8,0000.0,0005.07,0007.85,0004.79
2022-10-05 17:35:00,,0834.1,5.01,0.00,26.3,24.1,00.0,35.3,28.0,25.1,0000.0,0005.11,0007.89,0004.81
2022-10-05 17:36:00,,0834.1,5.00,0.00,26.2,23.9,00.0,35.3,27.9,25.4,0000.0,0005.10,0007.89,0004.82
2022-10-05 17:37:00,,0834.1,5.00,0.00,26.2,24.0,00.0,35.3,27.9,25.5,0000.0,0005.11,0007.91,0004.80
2022-10-05 17:38:00,,0834.1,5.00,0.00,26.2,24.3,00.0,35.2,28.0,25.3,0000.0,0005.10,0008.08,0004.79
2022-10-05 17:39:00,,0834.1,4.99,0.00,26.3,24.6,00.0,35.2,28.1,24.4,0000.0,0005.07,0008.02,0004.77
2022-10-05 17:40:00,,0834.1,5.00,0.00,26.3,24.7,00.0,35.2,28.1,24.3,0000.0,0005.05,0008.26,0004.75
2022-10-05 17:41:00,,0834.1,5.00,0.00,26.3,24.9,00.0,35.2,28.2,24.7,0000.0,0005.03,0008.61,0004.72
2022-10-05 17:42:00,,0834.1,5.00,0.00,26.3,24.9,00.0,35.2,28.2,24.8,0000.0,0005.02,0008.66,0004.70
2022-10-05 17:43:00,,0834.1,5.01,0.00,26.3,24.7,00.0,35.2,28.1,24.6,0000.0,0004.99,0008.63,0004.68
2022-10-05 17:44:00,,0834.1,5.00,0.00,26.3,24.7,00.0,35.2,28.1,24.6,0000.0,0004.96,0008.52,0004.65
2022-10-05 17:45:00,,0834.1,4.99,0.00,26.3,24.6,00.0,35.2,28.1,24.9,0000.0,0004.93,0008.66,0004.61
2022-10-05 17:46:00,,0834.0,5.01,0.00,26.3,24.5,00.0,35.2,28.1,24.6,0000.0,0004.88,0009.01,0004.55
2022-10-05 17:47:00,,0834.0,5.01,0.00,26.2,24.3,00.0,35.2,28.0,24.9,0000.0,0004.84,0009.27,0004.50
2022-10-05 17:48:00,,0834.0,5.00,0.00,26.3,24.5,00.0,35.2,28.0,25.2,0000.0,0004.76,0009.18,0004.44
2022-10-05 17:49:00,,0834.0,5.01,0.00,26.3,24.6,00.0,35.2,28.0,24.5,0000.0,0004.70,0008.88,0004.40
2022-10-05 17:50:00,,0834.1,4.99,0.00,26.3,24.6,00.0,35.2,28.1,24.1,0000.0,0004.66,0008.81,0004.36
2022-10-05 17:51:00,,0834.0,4.99,0.00,26.3,24.6,00.0,35.1,28.0,24.0,0000.0,0004.64,0008.53,0004.34
2022-10-05 17:52:00,,0834.0,5.01,0.00,26.2,24.6,00.0,35.1,28.0,23.9,0000.0,0004.62,0008.19,0004.33
2022-10-05 17:53:00,,0834.0,5.00,0.00,26.3,24.7,00.0,35.1,28.1,23.4,0000.0,0004.59,0008.21,0004.31
2022-10-05 17:54:00,,0834.0,5.00,0.00,26.3,24.8,00.0,35.1,28.1,22.8,0000.0,0004.55,0008.13,0004.28
2022-10-05 17:55:00,,0834.0,4.99,0.00,26.3,25.0,00.0,35.1,28.2,23.2,0000.0,0004.52,0008.08,0004.26
2022-10-05 17:56:00,,0834.0,5.00,0.00,26.4,25.2,00.0,35.2,28.3,23.2,0000.0,0004.52,0007.96,0004.24
2022-10-05 17:57:00,,0834.0,5.00,0.00,26.4,25.3,00.0,35.2,28.3,23.2,0000.0,0004.50,0007.55,0004.22
2022-10-05 17:58:00,,0834.0,5.00,0.00,26.4,25.3,00.0,35.2,28.3,23.0,0000.0,0004.44,0006.94,0004.20
2022-10-05 17:59:00,,0834.0,5.01,0.00,26.5,25.3,00.0,35.2,28.3,23.2,0000.0,0004.43,0006.83,0004.21
